| time (UTC) | temp F | wind direction | speed MPH | gust MPH | rain 1hr in | rain 24hr in | rain mn in | humidity % | barometer mb |
| 20260510153052 | 56 | 64 | 3.0 | 12.0 | 0.00 | 0.00 | 0.00 | 54 | 1016.3 |
| 20260510151548 | 57 | 360 | 3.0 | 14.0 | 0.00 | 0.00 | 0.00 | 51 | 1016.5 |
| 20260510150113 | 57 | 27 | 6.0 | 14.0 | 0.00 | 0.00 | 0.00 | 52 | 1016.7 |
| 20260510144544 | 58 | 61 | 4.0 | 12.0 | 0.00 | 0.00 | 0.00 | 52 | 1016.8 |
| 20260510143043 | 58 | 355 | 3.0 | 13.0 | 0.00 | 0.00 | 0.00 | 52 | 1016.8 |
| 20260510141549 | 57 | 154 | 3.0 | 12.0 | 0.00 | 0.00 | 0.00 | 53 | 1017.1 |
| 20260510140052 | 56 | 40 | 4.0 | 12.0 | 0.00 | 0.00 | 0.00 | 53 | 1017.4 |
| 20260510134557 | 56 | 66 | 4.0 | 10.0 | 0.00 | 0.00 | 0.00 | 55 | 1017.4 |
| 20260510133045 | 56 | 84 | 4.0 | 12.0 | 0.00 | 0.00 | 0.00 | 57 | 1017.4 |
| 20260510131549 | 56 | 109 | 2.0 | 13.0 | 0.00 | 0.00 | 0.00 | 58 | 1017.4 |
| 20260510130052 | 56 | 352 | 3.0 | 13.0 | 0.00 | 0.00 | 0.00 | 59 | 1017.7 |
| 20260510124555 | 57 | 5 | 5.0 | 14.0 | 0.00 | 0.00 | 0.00 | 58 | 1017.6 |
| 20260510123056 | 56 | 26 | 2.0 | 8.0 | 0.00 | 0.00 | 0.00 | 57 | 1017.8 |
| 20260510121552 | 55 | 77 | 3.0 | 11.0 | 0.00 | 0.00 | 0.00 | 60 | 1017.9 |
| 20260510120054 | 55 | 83 | 4.0 | 14.0 | 0.00 | 0.00 | 0.00 | 60 | 1018.1 |
| 20260510114553 | 55 | 175 | 3.0 | 14.0 | 0.00 | 0.00 | 0.00 | 61 | 1018.2 |
| 20260510113051 | 54 | 348 | 3.0 | 12.0 | 0.00 | 0.00 | 0.00 | 65 | 1018.4 |
| 20260510111553 | 53 | 332 | 4.0 | 11.0 | 0.00 | 0.00 | 0.00 | 67 | 1018.5 |
| 20260510110047 | 53 | 49 | 3.0 | 15.0 | 0.00 | 0.00 | 0.00 | 68 | 1018.6 |
| 20260510104549 | 53 | 360 | 3.0 | 9.0 | 0.00 | 0.00 | 0.00 | 68 | 1018.7 |
| 20260510103059 | 54 | 5 | 4.0 | 12.0 | 0.00 | 0.00 | 0.00 | 68 | 1018.7 |
| 20260510101544 | 54 | 74 | 4.0 | 10.0 | 0.00 | 0.00 | 0.00 | 68 | 1018.8 |
| 20260510100054 | 54 | 150 | 3.0 | 12.0 | 0.00 | 0.00 | 0.00 | 67 | 1018.8 |
| 20260510094604 | 54 | 341 | 4.0 | 12.0 | 0.00 | 0.00 | 0.00 | 70 | 1018.9 |
| 20260510093059 | 54 | 72 | 4.0 | 11.0 | 0.00 | 0.00 | 0.00 | 72 | 1018.9 |
| 20260510091550 | 53 | 0 | 3.0 | 13.0 | 0.00 | 0.00 | 0.00 | 74 | 1019.1 |
| 20260510090110 | 52 | 91 | 4.0 | 13.0 | 0.00 | 0.00 | 0.00 | 76 | 1019.1 |
| 20260510084542 | 51 | 34 | 3.0 | 9.0 | 0.00 | 0.00 | 0.00 | 79 | 1019.2 |
| 20260510083055 | 51 | 12 | 2.0 | 10.0 | 0.00 | 0.00 | 0.00 | 79 | 1019.3 |
| 20260510081546 | 51 | 105 | 3.0 | 8.0 | 0.00 | 0.00 | 0.00 | 79 | 1019.3 |
| 20260510080046 | 51 | 5 | 2.0 | 8.0 | 0.00 | 0.00 | 0.00 | 80 | 1019.3 |
| 20260510074551 | 51 | 5 | 2.0 | 7.0 | 0.00 | 0.00 | 0.00 | 80 | 1019.4 |
| 20260510073056 | 51 | 255 | 2.0 | 7.0 | 0.00 | 0.00 | 0.00 | 80 | 1019.3 |
| 20260510071543 | 51 | 18 | 2.0 | 9.0 | 0.00 | 0.00 | 0.00 | 80 | 1019.2 |
| 20260510070051 | 51 | 80 | 2.0 | 12.0 | 0.00 | 0.00 | 0.00 | 80 | 1019.1 |
| 20260510064551 | 50 | 70 | 3.0 | 11.0 | 0.00 | 0.00 | 0.00 | 82 | 1019.0 |
| 20260510063044 | 50 | 30 | 1.0 | 11.0 | 0.00 | 0.00 | 0.00 | 84 | 1018.8 |
| 20260510061543 | 50 | 43 | 2.0 | 9.0 | 0.00 | 0.00 | 0.00 | 87 | 1018.7 |
| 20260510060045 | 49 | 14 | 3.0 | 10.0 | 0.00 | 0.00 | 0.00 | 89 | 1018.6 |
| 20260510054550 | 49 | 75 | 3.0 | 7.0 | 0.00 | 0.00 | 0.00 | 91 | 1018.4 |
| 20260510053050 | 48 | 12 | 2.0 | 6.0 | 0.00 | 0.00 | 0.00 | 91 | 1018.4 |
| 20260510051601 | 47 | 13 | 2.0 | 6.0 | 0.00 | 0.00 | 0.00 | 91 | 1018.4 |
| 20260510050054 | 47 | 47 | 2.0 | 5.0 | 0.00 | 0.00 | 0.00 | 91 | 1018.6 |
| 20260510044602 | 47 | 36 | 2.0 | 4.0 | 0.00 | 0.00 | 0.00 | 90 | 1018.6 |
| 20260510043045 | 47 | 12 | 1.0 | 4.0 | 0.00 | 0.00 | 0.00 | 90 | 1018.8 |
| 20260510041551 | 47 | 59 | 0.0 | 3.0 | 0.00 | 0.00 | 0.00 | 90 | 1018.8 |
| 20260510040051 | 47 | 56 | 0.0 | 5.0 | 0.00 | 0.00 | 0.00 | 90 | 1018.7 |
| 20260510034546 | 47 | 49 | 1.0 | 6.0 | 0.00 | 0.00 | 0.00 | 90 | 1018.7 |
| 20260510033043 | 47 | 30 | 1.0 | 3.0 | 0.00 | 0.00 | 0.00 | 90 | 1018.9 |
| 20260510031553 | 47 | 36 | 1.0 | 4.0 | 0.00 | 0.00 | 0.00 | 90 | 1019.1 |
| 20260510030052 | 47 | 11 | 2.0 | 4.0 | 0.00 | 0.00 | 0.00 | 89 | 1018.9 |
| 20260510024553 | 47 | 355 | 1.0 | 4.0 | 0.00 | 0.00 | 0.00 | 89 | 1019.2 |
| 20260510023049 | 48 | 25 | 1.0 | 6.0 | 0.00 | 0.00 | 0.00 | 89 | 1019.2 |
| 20260510021544 | 48 | 24 | 1.0 | 5.0 | 0.00 | 0.00 | 0.00 | 89 | 1019.2 |
| 20260510020044 | 48 | 54 | 3.0 | 8.0 | 0.00 | 0.00 | 0.00 | 89 | 1019.2 |
| 20260510014556 | 48 | 32 | 2.0 | 5.0 | 0.00 | 0.00 | 0.00 | 88 | 1019.3 |
| 20260510013052 | 49 | 36 | 2.0 | 7.0 | 0.00 | 0.00 | 0.00 | 87 | 1019.4 |
| 20260510011551 | 49 | 22 | 2.0 | 6.0 | 0.00 | 0.00 | 0.00 | 87 | 1019.4 |
| 20260510010045 | 50 | 38 | 2.0 | 5.0 | 0.00 | 0.00 | 0.00 | 87 | 1019.3 |
| 20260510004556 | 50 | 360 | 1.0 | 4.0 | 0.00 | 0.00 | 0.00 | 87 | 1019.3 |
| 20260510003057 | 50 | 51 | 1.0 | 8.0 | 0.00 | 0.00 | 0.00 | 87 | 1019.3 |
| 20260510001551 | 50 | 38 | 2.0 | 7.0 | 0.00 | 0.00 | 0.00 | 87 | 1019.2 |
| 20260510000051 | 50 | 59 | 2.0 | 5.0 | 0.00 | 0.00 | 0.00 | 87 | 1019.2 |
| 20260509234553 | 50 | 49 | 1.0 | 6.0 | 0.00 | 0.00 | 0.00 | 87 | 1019.5 |
| 20260509233054 | 50 | 360 | 2.0 | 4.0 | 0.00 | 0.00 | 0.00 | 87 | 1019.8 |
| 20260509231545 | 51 | 22 | 1.0 | 3.0 | 0.00 | 0.00 | 0.00 | 87 | 1019.7 |
| 20260509230047 | 51 | 0 | 0.0 | 3.0 | 0.00 | 0.00 | 0.00 | 87 | 1019.7 |
| 20260509224552 | 51 | 355 | 1.0 | 4.0 | 0.00 | 0.00 | 0.00 | 87 | 1019.5 |
| 20260509223052 | 51 | 55 | 1.0 | 5.0 | 0.00 | 0.00 | 0.00 | 86 | 1019.4 |
| 20260509221542 | 51 | 0 | 2.0 | 4.0 | 0.00 | 0.00 | 0.00 | 85 | 1019.3 |
| 20260509220050 | 51 | 78 | 1.0 | 7.0 | 0.00 | 0.00 | 0.00 | 84 | 1019.3 |
| 20260509214600 | 52 | 37 | 1.0 | 6.0 | 0.00 | 0.00 | 0.00 | 82 | 1019.2 |
| 20260509213119 | 53 | 49 | 1.0 | 6.0 | 0.00 | 0.00 | 0.00 | 80 | 1019.1 |
| 20260509211554 | 53 | 18 | 0.0 | 9.0 | 0.00 | 0.00 | 0.00 | 78 | 1019.1 |
| 20260509204549 | 54 | 33 | 1.0 | 6.0 | 0.00 | 0.00 | 0.00 | 72 | 1018.9 |
| 20260509203053 | 55 | 84 | 2.0 | 5.0 | 0.00 | 0.00 | 0.00 | 67 | 1018.9 |
| 20260509201546 | 56 | 57 | 1.0 | 5.0 | 0.00 | 0.00 | 0.00 | 65 | 1018.9 |
| 20260509194553 | 58 | 30 | 1.0 | 5.0 | 0.00 | 0.00 | 0.00 | 56 | 1018.7 |
| 20260509193053 | 59 | 51 | 1.0 | 3.0 | 0.00 | 0.00 | 0.00 | 52 | 1018.5 |
| 20260509191543 | 59 | 74 | 1.0 | 4.0 | 0.00 | 0.00 | 0.00 | 50 | 1018.2 |
| 20260509190045 | 60 | 67 | 1.0 | 9.0 | 0.00 | 0.00 | 0.00 | 48 | 1018.0 |
| 20260509184555 | 61 | 46 | 2.0 | 7.0 | 0.00 | 0.00 | 0.00 | 46 | 1018.0 |
| 20260509183051 | 62 | 34 | 2.0 | 8.0 | 0.00 | 0.00 | 0.00 | 43 | 1017.9 |
| 20260509181558 | 62 | 120 | 1.0 | 7.0 | 0.00 | 0.00 | 0.00 | 42 | 1017.9 |
| 20260509180050 | 63 | 111 | 3.0 | 9.0 | 0.00 | 0.00 | 0.00 | 40 | 1017.9 |
| 20260509174552 | 63 | 59 | 3.0 | 8.0 | 0.00 | 0.00 | 0.00 | 41 | 1017.9 |
| 20260509173052 | 64 | 136 | 1.0 | 6.0 | 0.00 | 0.00 | 0.00 | 40 | 1018.0 |
| 20260509171552 | 64 | 132 | 2.0 | 9.0 | 0.00 | 0.00 | 0.00 | 39 | 1018.0 |
| 20260509170049 | 64 | 131 | 2.0 | 9.0 | 0.00 | 0.00 | 0.00 | 38 | 1018.0 |
| 20260509164544 | 65 | 118 | 2.0 | 7.0 | 0.00 | 0.00 | 0.00 | 38 | 1018.0 |
| 20260509163049 | 65 | 81 | 4.0 | 9.0 | 0.00 | 0.00 | 0.00 | 36 | 1017.9 |
| 20260509161546 | 66 | 137 | 3.0 | 9.0 | 0.00 | 0.00 | 0.00 | 36 | 1017.7 |
| 20260509160046 | 66 | 25 | 2.0 | 9.0 | 0.00 | 0.00 | 0.00 | 36 | 1017.6 |
| 20260509154545 | 67 | 55 | 3.0 | 9.0 | 0.00 | 0.00 | 0.00 | 36 | 1017.5 |